SCP
-0 -0 0 0 0 0 -0 0 -0 -0 -0 -0 -0 -0 -0 -0 0 0 0 -0 0 0 0 0 0 0 0 0 0 0 0 0 0 0 0 0 0 0 0 0 0 0 0 0 0 0 0 0 0
-0 -0 -0 0 -0 0 -0 0 -0 -0 -0 -0 -0 0 -0 0 0 0 0 -0 0 0 0 0 0 0 0 0 0 0 0 0 0 0 0 0 0 0 0 0 0 0 0 0 0 0 0 0 0
-0 -0 0 -0 -0 0 0 -0 -0 0 0 0 0 0 0 0 0 0 0 0 0 0 0 0 0 0 0 0 0 0 0 0 0 0 0 0 0 0 0 0 0 0 0 0 0 0 0 0 0
-0 -0 -0 0 -0 -0 0 0 0 0 0 -0 0 0 0 0 0 0 0 0 0 0 0 0 0 0 0 0 0 0 0 0 0 0 0 0 0 0 0 0 0 0 0 0 0 0 0 0 0
0 -0 -0 -0 0 0 -0 0 0 0 0 0 0 0 0 0 0 0 0 0 0 0 0 0 0 0 0 0 0 0 0 0 0 0 0 0 0 0 0 0 0 0 0 0 0 0 0 0 0
-0 0 -0 0 0 0 -0 -0 -0 0 0 0 0 0 0 0 0 0 0 0 0 0 0 0 0 0 0 0 0 0 0 0 0 0 0 0 0 0 0 0 0 0 0 0 0 0 0 0 0
-0 0 -0 -0 0 0 0 -0 0 0 0 0 0 0 0 0 0 0 0 0 0 0 0 0 0 0 0 0 0 0 0 0 0 0 0 0 0 0 0 0 0 0 0 0 0 0 0 0 0
-0 0 -0 -0 -0 -0 0 0 0 0 0 0 0 0 0 0 0 0 0 0 0 0 0 0 0 0 0 0 0 0 0 0 0 0 -0 -0 -0 0 0 0 0 0 0 0 0 0 0 0 0
0 0 -0 0 0 -0 0 -0 0 0 0 0 0 0 0 0 0 0 0 0 0 0 0 0 0 0 0 0 0 0 0 0 0 0 0 -0 0 0 0 0 0 -0 -0 -0 0 0 0 0 0
0 0 -0 0 -0 -0 -0 0 0 0 0 0 0 0 0 0 0 0 0 0 0 0 0 0 0 0 0 0 0 0 0 0 0 0 0 0 0 0 0 0 0 -0 -0 0 0 0 0 0 0
-0 -0 -0 0 0 -0 -0 0 0 0 0 0 0 0 0 0 0 0 0 0 0 0 0 0 0 0 0 0 0 0 0 0 0 0 0 0 0 0 0 0 0 0 0 0 0 0 0 0 0
0 0 0 0 0 0 -0 0 0 0 0 0 0 0 0 0 0 0 0 0 0 0 0 0 0 0 0 0 0 0 0 0 0 0 0 0 0 0 0 0 0 0 0 0 0 0 0 0 0
0 0 0 0 0 0 0 0 0 0 0 0 0 0 0 0 0 0 0 0 0 0 0 0 0 0 0 0 0 0 0 0 0 0 0 0 0 0 0 0 0 0 0 0 0 0 0 0 0
0 0 0 0 0 0 0 0 0 0 0 0 0 0 0 0 0 0 0 0 0 0 0 0 0 0 0 0 0 0 0 0 0 0 0 0 0 0 0 0 0 0 0 0 0 0 0 0 0
0 0 0 -0 -0 0 0 -0 0 -0 0 0 0 0 0 0 0 0 0 0 0 0 0 0 0 0 0 0 0 0 0 0 0 0 0 0 0 0 0 0 0 0 0 0 0 0 0 0 0
0 0 0 -0 0 0 0 0 0 0 0 0 0 0 0 0 0 0 0 0 0 0 0 0 0 0 0 0 0 0 0 0 0 0 0 0 0 0 0 0 0 0 0 0 0 0 0 0 0
0 0 -0 0 0 0 0 0 0 0 0 0 0 0 0 0 0 0 0 0 0 0 0 0 0 0 0 0 0 0 0 0 0 0 0 0 0 0 0 0 0 0 0 0 0 0 0 0 0
-0 -0 0 0 0 0 0 0 0 0 0 0 0 0 0 0 0 0 0 0 0 0 0 0 0 0 0 0 0 0 0 0 0 0 0 0 0 0 0 0 0 0 0 0 0 0 0 0 0
-0 0 0 0 0 0 -0 0 0 0 0 0 0 0 0 0 0 0 0 0 0 0 0 0 0 0 0 0 0 0 0 0 0 0 0 0 0 0 0 0 0 0 0 0 0 0 0 0 0
0 0 0 0 -0 0 0 0 0 0 0 0 0 0 0 0 0 0 0 0 0 0 0 0 0 0 0 0 0 0 0 0 0 0 0 0 0 0 0 0 0 0 0 0 0 0 0 0 0
0 0 0 -0 0 0 0 0 0 0 0 0 0 0 0 0 0 0 0 0 0 0 0 0 0 0 0 0 0 0 0 0 0 0 0 0 0 0 0 0 0 0 0 0 0 0 0 0 0
0 -0 0 0 0 0 -0 0 0 0 0 0 0 0 0 0 0 0 0 0 0 0 0 0 0 0 0 0 0 0 0 0 0 0 0 0 0 0 0 0 0 0 0 0 0 0 0 0 0
-0 0 0 0 0 0 0 0 0 0 0 0 0 0 0 0 0 0 0 0 0 0 0 0 0 0 0 0 0 0 0 0 0 0 0 0 0 0 0 0 0 0 0 0 0 0 0 0 0
0 0 0 0 -0 0 -0 0 0 0 0 0 0 0 0 0 0 0 0 0 0 0 0 0 0 0 0 0 0 0 0 0 0 0 0 0 0 0 0 0 0 0 0 0 0 0 0 0 0
0 -0 0 0 0 0 0 0 0 0 0 0 0 0 0 0 0 0 0 0 0 0 0 0 0 0 0 0 0 0 0 0 0 0 0 0 0 0 0 0 0 0 0 0 0 0 0 0 0
-0 -0 -0 0 0 0 0 0 0 0 0 0 0 0 0 0 0 0 0 0 0 0 0 0 0 0 0 0 0 0 0 0 0 0 0 0 0 0 0 0 0 0 0 0 0 0 0 0 0
-0 0 0 0 0 0 0 0 -0 -0 0 0 0 0 0 0 0 0 0 0 0 0 0 0 0 0 0 0 0 0 0 0 0 0 0 0 0 0 0 0 0 0 0 0 0 0 0 0 0
-0 0 0 0 0 0 0 0 0 0 0 0 0 0 0 0 0 0 0 0 0 0 0 0 0 0 0 0 0 0 0 0 0 0 0 0 0 0 0 0 0 0 0 0 0 0 0 0 0
0 -0 0 0 0 0 0 0 0 0 0 0 0 0 0 0 0 0 0 0 0 0 0 0 0 0 0 0 0 0 0 0 0 0 0 0 0 0 0 0 0 0 0 0 0 0 0 0 0
0 0 0 0 0 0 0 0 0 0 0 0 0 0 0 0 0 0 0 0 0 0 0 0 0 0 0 0 0 0 0 0 0 0 0 0 0 0 0 0 0 0 0 0 0 0 0 0 0
Wind_Speed_500mb
16 13 10 19 11 7 14 17 39 33 28 31 30 23 35 30 14 13 30 31 29 22 25 24 16 11 11 12 11 11 13 14 17 20 23 25 28 31 33 33 35 34 33 35 37 39 37 34 34
13 17 11 19 13 11 17 21 31 28 34 26 24 20 27 14 17 32 35 27 18 23 29 25 18 15 14 13 11 10 11 13 17 20 24 26 28 30 33 34 34 37 37 37 38 39 38 37 35
25 19 24 13 22 16 15 42 35 27 21 16 21 27 18 12 23 33 22 35 36 29 27 25 20 18 15 13 10 8 9 12 16 20 22 25 28 31 34 35 37 37 39 39 40 41 38 37 37
10 17 27 18 33 21 17 30 34 25 18 12 26 22 20 15 29 29 42 45 38 34 27 26 22 19 16 12 8 7 9 12 16 19 22 25 28 31 34 36 37 39 40 41 40 39 39 38 37
17 25 24 38 19 13 67 21 13 22 16 18 9 21 24 23 28 41 51 45 42 37 30 28 23 19 16 11 7 6 9 14 17 20 24 28 30 31 34 36 37 40 40 38 37 36 36 36 35
22 27 29 22 9 6 32 45 12 20 22 21 45 33 18 31 40 48 48 44 40 33 32 28 25 19 15 10 5 5 10 14 18 22 26 28 29 30 32 35 39 39 38 36 35 36 35 34 32
32 23 36 40 14 21 17 33 12 7 14 26 29 24 31 36 40 47 46 45 37 31 30 25 22 20 14 8 3 5 9 14 19 23 26 26 28 32 33 37 38 37 36 36 35 36 34 32 30
39 26 50 45 15 43 27 8 3 11 25 26 22 16 28 49 51 48 43 39 37 30 28 21 17 18 13 9 3 6 11 17 18 23 29 29 31 29 40 36 42 41 42 41 44 43 39 32 40
38 27 32 21 31 17 18 52 12 7 22 29 20 21 44 66 59 51 46 39 36 30 25 21 12 11 3 7 8 10 16 19 26 28 29 25 22 30 25 44 49 51 53 50 51 48 48 41 28
39 26 45 20 33 18 40 33 19 3 35 40 13 41 63 60 59 53 46 40 35 31 29 22 21 16 10 3 16 22 25 21 18 19 19 25 29 31 32 34 40 40 40 31 33 32 31 32 34
40 33 41 24 14 32 33 27 18 13 27 22 36 55 58 54 49 44 40 36 33 30 28 26 27 15 14 5 15 12 8 14 22 28 19 20 24 30 29 28 30 29 25 31 34 28 37 37 35
36 44 52 50 28 13 28 28 31 44 19 19 44 53 53 48 42 38 36 37 35 32 29 25 21 24 16 8 10 5 2 4 14 28 25 22 12 28 23 25 28 29 34 31 36 29 38 31 31
38 39 41 45 31 37 24 33 59 68 57 55 43 44 47 44 41 35 31 31 34 32 28 23 21 18 18 12 9 4 4 11 15 14 29 32 24 31 25 22 28 28 37 30 36 36 36 36 32
46 43 36 35 39 41 18 25 19 29 27 38 15 17 24 31 29 29 28 32 33 34 28 23 17 13 14 16 10 9 9 9 10 28 37 35 35 34 29 23 30 31 41 30 34 38 36 33 32
46 35 34 43 47 35 29 27 28 6 13 20 32 28 26 25 24 26 27 33 32 28 27 21 15 15 10 8 14 3 7 16 19 32 29 42 37 36 31 19 30 38 37 29 33 35 33 32 34
32 32 33 37 29 32 16 17 20 37 14 45 36 30 26 28 25 29 32 29 23 27 23 15 14 10 13 10 14 7 17 11 18 10 17 31 32 38 35 20 28 41 28 30 34 36 37 35 33
29 34 46 21 8 24 35 27 10 18 17 42 39 30 31 31 34 30 26 25 27 25 25 16 13 11 7 8 6 8 17 23 23 18 14 32 19 31 33 21 30 36 31 30 34 39 36 39 38
35 38 16 22 14 19 27 26 21 31 34 44 44 37 32 30 28 27 27 29 24 25 20 17 11 7 9 14 11 22 31 29 29 12 30 34 27 26 29 23 27 29 29 31 35 39 37 35 41
29 30 19 22 28 37 37 24 36 40 38 39 39 37 35 38 30 31 31 26 27 22 17 13 9 8 10 8 17 31 26 14 13 17 29 26 30 33 29 31 28 29 28 32 34 36 40 41 41
22 30 31 33 33 8 33 40 35 40 48 40 38 40 40 33 34 29 28 25 22 21 14 15 13 8 3 12 21 22 27 19 21 17 19 17 36 43 30 33 29 31 31 31 36 37 41 40 41
23 28 31 36 31 23 32 31 36 37 43 36 36 34 33 32 30 28 26 25 22 19 14 7 2 9 16 20 20 18 21 24 13 19 22 34 29 35 34 33 32 30 31 34 38 37 39 46 43
30 28 25 23 21 25 30 4 28 30 28 28 33 32 31 27 28 27 27 25 21 18 7 12 9 14 19 21 22 20 19 17 19 19 27 28 31 32 33 33 38 32 35 35 41 38 40 41 46
32 26 17 29 28 31 37 19 13 20 26 22 29 28 27 27 29 27 27 23 17 17 13 10 11 18 23 25 24 19 17 15 18 26 26 26 26 28 30 31 39 36 36 37 40 41 43 42 43
17 26 23 30 26 25 35 8 17 9 19 23 27 25 26 29 29 29 25 21 21 16 10 7 16 24 27 30 25 23 25 27 27 30 27 30 29 29 32 42 37 40 38 42 41 43 42 48 47
17 19 18 21 21 14 17 23 19 20 22 23 24 22 26 30 27 24 22 21 15 12 8 12 22 28 32 21 23 26 25 22 24 28 29 32 35 35 38 42 44 41 41 42 45 44 48 51 52
19 22 15 30 22 12 2 19 14 22 24 23 23 24 26 25 23 21 22 17 14 9 9 13 21 28 19 21 23 24 26 26 25 29 32 32 36 37 40 46 42 43 43 43 44 50 52 47 56
10 12 11 16 22 20 15 24 33 33 24 22 24 23 25 23 23 23 20 15 12 8 7 20 25 17 20 22 23 25 27 29 31 32 32 34 37 37 41 42 44 44 44 45 49 58 53 55 53
15 9 13 7 8 9 15 21 15 17 22 20 22 23 23 23 23 20 18 15 12 6 17 20 22 16 20 21 24 25 27 30 31 33 35 38 40 41 41 44 47 46 45 48 57 54 53 59 52
11 13 14 13 14 10 7 12 18 17 18 19 21 20 21 21 20 19 16 13 12 5 18 21 14 18 21 25 26 28 30 30 31 33 36 39 41 42 44 46 46 45 47 49 49 52 67 66 54
5 16 15 10 23 19 12 11 17 18 21 22 20 20 19 18 18 16 17 12 3 13 20 13 15 19 22 24 27 28 29 31 33 35 37 39 43 43 44 45 48 48 51 48 47 61 90 63 58
Wind_Direction_500mb
254 208 148 222 266 276 346 294 348 79 85 74 66 65 91 46 22 104 156 191 183 195 164 166 158 143 138 134 119 90 67 49 36 27 22 15 11 6 4 3 1 358 358 357 355 354 354 352 349
223 170 231 273 240 73 305 296 297 69 94 103 69 81 66 83 73 136 148 187 186 155 157 158 150 153 151 143 116 88 62 40 29 19 14 12 7 3 1 1 358 354 354 354 353 352 351 350 348
172 209 263 225 238 181 189 230 233 104 115 98 105 63 50 86 116 136 169 158 133 142 164 151 156 161 155 137 116 87 53 33 23 17 12 8 3 1 358 358 355 353 353 353 353 351 350 349 347
153 218 252 253 259 338 78 97 118 122 96 74 120 89 84 97 137 168 147 136 146 165 175 156 160 162 153 143 125 81 43 25 21 16 7 3 1 358 356 355 352 351 353 354 351 348 347 347 345
258 262 258 260 340 25 297 74 92 120 113 97 73 81 101 122 148 143 137 150 158 181 168 160 165 162 157 156 124 62 28 19 16 10 5 2 358 356 353 352 352 353 351 348 349 351 348 346 345
241 250 272 268 51 272 6 331 13 100 99 105 111 111 108 142 142 143 145 153 174 183 163 160 166 167 168 160 111 43 19 14 11 8 4 358 354 354 351 356 354 353 350 351 352 351 348 347 347
256 282 286 289 178 160 201 235 40 66 138 148 132 120 141 153 153 146 154 160 175 165 167 164 166 170 172 159 121 20 15 16 14 9 5 358 351 353 360 356 356 353 350 353 353 353 351 349 348
249 269 285 283 87 320 322 324 134 52 79 115 138 155 170 166 156 154 153 154 153 163 163 167 163 157 161 150 114 27 29 29 19 17 13 13 17 353 343 357 357 359 356 359 1 5 4 12 6
260 277 275 30 335 145 334 295 122 105 131 73 62 44 155 160 153 156 156 155 153 154 148 159 132 108 145 133 41 41 29 27 21 19 18 1 342 353 1 349 357 356 3 2 354 346 0 353 341
235 256 266 70 303 279 216 207 145 62 140 97 35 116 140 148 157 159 161 160 159 159 157 155 156 164 78 37 28 20 17 16 4 11 18 0 7 342 357 345 353 357 348 353 341 345 338 328 337
238 250 273 285 261 300 307 313 20 287 64 147 159 142 147 151 159 163 165 165 165 163 161 162 163 167 135 227 57 61 25 29 345 345 21 359 8 327 343 344 341 336 335 333 337 344 322 337 337
261 262 277 291 295 298 309 341 321 17 79 110 171 151 150 153 163 169 168 167 165 161 162 170 165 165 169 99 123 48 78 50 321 355 351 355 344 327 353 332 343 336 324 340 329 339 318 336 339
257 265 275 292 298 306 351 324 67 60 45 76 116 147 151 158 166 171 171 162 162 158 162 170 170 169 171 141 191 176 95 345 39 304 328 342 341 325 353 354 334 335 313 334 334 332 332 336 332
287 299 280 280 289 301 295 298 95 114 108 74 62 157 153 151 161 160 162 155 156 160 157 168 157 156 126 196 150 57 45 35 284 318 346 347 342 340 343 359 333 325 316 346 336 325 334 330 327
276 282 284 277 274 256 17 275 64 84 211 198 168 147 146 147 153 152 158 147 154 148 155 150 150 144 161 84 66 83 306 348 354 31 354 326 335 335 339 351 333 309 331 348 326 327 324 332 325
277 265 265 265 317 52 54 264 183 199 194 135 121 129 130 127 133 132 135 134 144 152 140 130 150 139 143 129 162 241 329 12 19 351 303 301 328 324 331 357 325 311 356 340 328 327 330 334 333
259 258 258 304 190 130 201 266 97 253 123 124 119 118 117 118 112 115 118 137 145 127 129 146 121 110 100 154 294 342 353 337 335 347 311 303 328 316 328 353 323 335 344 336 322 327 341 332 336
248 253 292 262 34 341 328 81 52 69 75 114 109 111 113 119 110 116 128 130 123 116 130 124 135 152 21 40 357 343 336 353 17 339 308 326 317 327 339 342 331 341 334 326 335 336 332 335 336
277 294 283 164 184 217 242 93 58 35 108 104 114 114 116 108 115 120 118 116 117 119 118 112 97 118 186 215 313 338 354 10 293 305 325 330 322 334 348 331 343 332 341 337 332 334 330 335 336
304 302 300 296 290 113 105 89 79 61 38 79 97 106 106 114 119 112 115 112 116 120 108 142 176 201 255 345 355 10 14 12 337 5 349 323 331 334 342 339 341 335 338 337 329 334 333 333 331
273 270 279 281 303 310 123 111 96 86 78 74 81 99 110 123 124 125 119 121 112 116 133 206 142 48 8 4 10 23 24 1 321 328 322 319 331 333 336 332 340 337 335 333 328 333 331 329 323
284 295 314 312 295 280 282 131 102 97 92 84 89 98 107 122 129 128 123 120 130 116 116 88 67 20 18 10 10 11 28 356 349 327 326 350 334 333 335 323 335 339 328 327 328 325 326 326 320
269 288 306 293 284 288 276 110 198 132 105 95 92 97 110 124 126 125 125 120 108 95 95 80 31 23 13 13 14 20 0 351 346 340 347 332 337 331 332 321 331 329 330 325 322 324 323 318 310
307 288 279 271 261 262 265 264 146 80 92 110 98 107 117 118 120 119 119 117 109 111 89 56 29 16 16 23 14 5 6 7 1 338 344 333 338 337 331 317 336 329 325 322 323 320 316 310 304
231 263 273 260 234 248 20 72 91 88 60 88 116 123 119 119 121 126 127 122 121 91 76 25 19 17 29 15 6 8 6 356 358 344 342 351 335 337 328 330 330 333 327 323 319 316 312 311 304
296 237 256 303 311 323 24 134 101 101 104 105 112 116 117 120 127 130 129 121 117 109 61 34 12 37 12 6 11 3 357 356 351 347 346 343 337 332 336 328 334 326 323 323 320 312 314 308 311
319 259 330 306 293 277 91 106 137 133 118 111 112 114 116 124 130 128 122 120 119 108 52 19 49 12 8 7 5 355 357 353 352 352 340 338 332 341 331 334 328 327 326 325 317 321 317 315 314
278 340 307 53 328 14 113 103 107 86 113 117 109 110 118 126 129 129 123 125 124 100 20 37 39 7 4 4 0 357 355 358 350 346 342 340 343 338 339 337 336 338 338 329 330 329 324 318 313
346 33 347 336 305 311 314 83 53 66 72 97 104 117 127 132 133 132 123 130 127 54 36 39 12 3 4 2 1 355 356 353 348 343 343 341 342 344 345 342 340 339 334 333 332 319 323 324 319
21 24 355 348 328 325 308 80 69 75 89 105 107 112 121 129 135 131 134 128 108 30 48 19 8 4 5 360 359 350 351 351 349 346 346 344 345 349 346 342 343 339 337 341 318 324 334 325 320
Wind_Speed_850mb
16 13 10 19 11 7 14 17 39 33 28 31 30 23 35 30 14 13 30 31 29 22 25 24 16 11 11 12 11 11 13 14 17 20 23 25 28 31 33 33 35 34 33 35 37 39 37 34 34
13 17 11 19 13 11 17 21 31 28 34 26 24 20 27 14 17 32 35 27 18 23 29 25 18 15 14 13 11 10 11 13 17 20 24 26 28 30 33 34 34 37 37 37 38 39 38 37 35
25 19 24 13 22 16 15 42 35 27 21 16 21 27 18 12 23 33 22 35 36 29 27 25 20 18 15 13 10 8 9 12 16 20 22 25 28 31 34 35 37 37 39 39 40 41 38 37 37
10 17 27 18 33 21 17 30 34 25 18 12 26 22 20 15 29 29 42 45 38 34 27 26 22 19 16 12 8 7 9 12 16 19 22 25 28 31 34 36 37 39 40 41 40 39 39 38 37
17 25 24 38 19 13 67 21 13 22 16 18 9 21 24 23 28 41 51 45 42 37 30 28 23 19 16 11 7 6 9 14 17 20 24 28 30 31 34 36 37 40 40 38 37 36 36 36 35
22 27 29 22 9 6 32 45 12 20 22 21 45 33 18 31 40 48 48 44 40 33 32 28 25 19 15 10 5 5 10 14 18 22 26 28 29 30 32 35 39 39 38 36 35 36 35 34 32
32 23 36 40 14 21 17 33 12 7 14 26 29 24 31 36 40 47 46 45 37 31 30 25 22 20 14 8 3 5 9 14 19 23 26 26 28 32 33 37 38 37 36 36 35 36 34 32 30
39 26 50 45 15 43 27 8 3 11 25 26 22 16 28 49 51 48 43 39 37 30 28 21 17 18 13 9 3 6 11 17 18 23 29 29 31 29 40 36 42 41 42 41 44 43 39 32 40
38 27 32 21 31 17 18 52 12 7 22 29 20 21 44 66 59 51 46 39 36 30 25 21 12 11 3 7 8 10 16 19 26 28 29 25 22 30 25 44 49 51 53 50 51 48 48 41 28
39 26 45 20 33 18 40 33 19 3 35 40 13 41 63 60 59 53 46 40 35 31 29 22 21 16 10 3 16 22 25 21 18 19 19 25 29 31 32 34 40 40 40 31 33 32 31 32 34
40 33 41 24 14 32 33 27 18 13 27 22 36 55 58 54 49 44 40 36 33 30 28 26 27 15 14 5 15 12 8 14 22 28 19 20 24 30 29 28 30 29 25 31 34 28 37 37 35
36 44 52 50 28 13 28 28 31 44 19 19 44 53 53 48 42 38 36 37 35 32 29 25 21 24 16 8 10 5 2 4 14 28 25 22 12 28 23 25 28 29 34 31 36 29 38 31 31
38 39 41 45 31 37 24 33 59 68 57 55 43 44 47 44 41 35 31 31 34 32 28 23 21 18 18 12 9 4 4 11 15 14 29 32 24 31 25 22 28 28 37 30 36 36 36 36 32
46 43 36 35 39 41 18 25 19 29 27 38 15 17 24 31 29 29 28 32 33 34 28 23 17 13 14 16 10 9 9 9 10 28 37 35 35 34 29 23 30 31 41 30 34 38 36 33 32
46 35 34 43 47 35 29 27 28 6 13 20 32 28 26 25 24 26 27 33 32 28 27 21 15 15 10 8 14 3 7 16 19 32 29 42 37 36 31 19 30 38 37 29 33 35 33 32 34
32 32 33 37 29 32 16 17 20 37 14 45 36 30 26 28 25 29 32 29 23 27 23 15 14 10 13 10 14 7 17 11 18 10 17 31 32 38 35 20 28 41 28 30 34 36 37 35 33
29 34 46 21 8 24 35 27 10 18 17 42 39 30 31 31 34 30 26 25 27 25 25 16 13 11 7 8 6 8 17 23 23 18 14 32 19 31 33 21 30 36 31 30 34 39 36 39 38
35 38 16 22 14 19 27 26 21 31 34 44 44 37 32 30 28 27 27 29 24 25 20 17 11 7 9 14 11 22 31 29 29 12 30 34 27 26 29 23 27 29 29 31 35 39 37 35 41
29 30 19 22 28 37 37 24 36 40 38 39 39 37 35 38 30 31 31 26 27 22 17 13 9 8 10 8 17 31 26 14 13 17 29 26 30 33 29 31 28 29 28 32 34 36 40 41 41
22 30 31 33 33 8 33 40 35 40 48 40 38 40 40 33 34 29 28 25 22 21 14 15 13 8 3 12 21 22 27 19 21 17 19 17 36 43 30 33 29 31 31 31 36 37 41 40 41
23 28 31 36 31 23 32 31 36 37 43 36 36 34 33 32 30 28 26 25 22 19 14 7 2 9 16 20 20 18 21 24 13 19 22 34 29 35 34 33 32 30 31 34 38 37 39 46 43
30 28 25 23 21 25 30 4 28 30 28 28 33 32 31 27 28 27 27 25 21 18 7 12 9 14 19 21 22 20 19 17 19 19 27 28 31 32 33 33 38 32 35 35 41 38 40 41 46
32 26 17 29 28 31 37 19 13 20 26 22 29 28 27 27 29 27 27 23 17 17 13 10 11 18 23 25 24 19 17 15 18 26 26 26 26 28 30 31 39 36 36 37 40 41 43 42 43
17 26 23 30 26 25 35 8 17 9 19 23 27 25 26 29 29 29 25 21 21 16 10 7 16 24 27 30 25 23 25 27 27 30 27 30 29 29 32 42 37 40 38 42 41 43 42 48 47
17 19 18 21 21 14 17 23 19 20 22 23 24 22 26 30 27 24 22 21 15 12 8 12 22 28 32 21 23 26 25 22 24 28 29 32 35 35 38 42 44 41 41 42 45 44 48 51 52
19 22 15 30 22 12 2 19 14 22 24 23 23 24 26 25 23 21 22 17 14 9 9 13 21 28 19 21 23 24 26 26 25 29 32 32 36 37 40 46 42 43 43 43 44 50 52 47 56
10 12 11 16 22 20 15 24 33 33 24 22 24 23 25 23 23 23 20 15 12 8 7 20 25 17 20 22 23 25 27 29 31 32 32 34 37 37 41 42 44 44 44 45 49 58 53 55 53
15 9 13 7 8 9 15 21 15 17 22 20 22 23 23 23 23 20 18 15 12 6 17 20 22 16 20 21 24 25 27 30 31 33 35 38 40 41 41 44 47 46 45 48 57 54 53 59 52
11 13 14 13 14 10 7 12 18 17 18 19 21 20 21 21 20 19 16 13 12 5 18 21 14 18 21 25 26 28 30 30 31 33 36 39 41 42 44 46 46 45 47 49 49 52 67 66 54
5 16 15 10 23 19 12 11 17 18 21 22 20 20 19 18 18 16 17 12 3 13 20 13 15 19 22 24 27 28 29 31 33 35 37 39 43 43 44 45 48 48 51 48 47 61 90 63 58
Wind_Direction_850mb
254 208 148 222 266 276 346 294 348 79 85 74 66 65 91 46 22 104 156 191 183 195 164 166 158 143 138 134 119 90 67 49 36 27 22 15 11 6 4 3 1 358 358 357 355 354 354 352 349
223 170 231 273 240 73 305 296 297 69 94 103 69 81 66 83 73 136 148 187 186 155 157 158 150 153 151 143 116 88 62 40 29 19 14 12 7 3 1 1 358 354 354 354 353 352 351 350 348
172 209 263 225 238 181 189 230 233 104 115 98 105 63 50 86 116 136 169 158 133 142 164 151 156 161 155 137 116 87 53 33 23 17 12 8 3 1 358 358 355 353 353 353 353 351 350 349 347
153 218 252 253 259 338 78 97 118 122 96 74 120 89 84 97 137 168 147 136 146 165 175 156 160 162 153 143 125 81 43 25 21 16 7 3 1 358 356 355 352 351 353 354 351 348 347 347 345
258 262 258 260 340 25 297 74 92 120 113 97 73 81 101 122 148 143 137 150 158 181 168 160 165 162 157 156 124 62 28 19 16 10 5 2 358 356 353 352 352 353 351 348 349 351 348 346 345
241 250 272 268 51 272 6 331 13 100 99 105 111 111 108 142 142 143 145 153 174 183 163 160 166 167 168 160 111 43 19 14 11 8 4 358 354 354 351 356 354 353 350 351 352 351 348 347 347
256 282 286 289 178 160 201 235 40 66 138 148 132 120 141 153 153 146 154 160 175 165 167 164 166 170 172 159 121 20 15 16 14 9 5 358 351 353 360 356 356 353 350 353 353 353 351 349 348
249 269 285 283 87 320 322 324 134 52 79 115 138 155 170 166 156 154 153 154 153 163 163 167 163 157 161 150 114 27 29 29 19 17 13 13 17 353 343 357 357 359 356 359 1 5 4 12 6
260 277 275 30 335 145 334 295 122 105 131 73 62 44 155 160 153 156 156 155 153 154 148 159 132 108 145 133 41 41 29 27 21 19 18 1 342 353 1 349 357 356 3 2 354 346 0 353 341
235 256 266 70 303 279 216 207 145 62 140 97 35 116 140 148 157 159 161 160 159 159 157 155 156 164 78 37 28 20 17 16 4 11 18 0 7 342 357 345 353 357 348 353 341 345 338 328 337
238 250 273 285 261 300 307 313 20 287 64 147 159 142 147 151 159 163 165 165 165 163 161 162 163 167 135 227 57 61 25 29 345 345 21 359 8 327 343 344 341 336 335 333 337 344 322 337 337
261 262 277 291 295 298 309 341 321 17 79 110 171 151 150 153 163 169 168 167 165 161 162 170 165 165 169 99 123 48 78 50 321 355 351 355 344 327 353 332 343 336 324 340 329 339 318 336 339
257 265 275 292 298 306 351 324 67 60 45 76 116 147 151 158 166 171 171 162 162 158 162 170 170 169 171 141 191 176 95 345 39 304 328 342 341 325 353 354 334 335 313 334 334 332 332 336 332
287 299 280 280 289 301 295 298 95 114 108 74 62 157 153 151 161 160 162 155 156 160 157 168 157 156 126 196 150 57 45 35 284 318 346 347 342 340 343 359 333 325 316 346 336 325 334 330 327
276 282 284 277 274 256 17 275 64 84 211 198 168 147 146 147 153 152 158 147 154 148 155 150 150 144 161 84 66 83 306 348 354 31 354 326 335 335 339 351 333 309 331 348 326 327 324 332 325
277 265 265 265 317 52 54 264 183 199 194 135 121 129 130 127 133 132 135 134 144 152 140 130 150 139 143 129 162 241 329 12 19 351 303 301 328 324 331 357 325 311 356 340 328 327 330 334 333
259 258 258 304 190 130 201 266 97 253 123 124 119 118 117 118 112 115 118 137 145 127 129 146 121 110 100 154 294 342 353 337 335 347 311 303 328 316 328 353 323 335 344 336 322 327 341 332 336
248 253 292 262 34 341 328 81 52 69 75 114 109 111 113 119 110 116 128 130 123 116 130 124 135 152 21 40 357 343 336 353 17 339 308 326 317 327 339 342 331 341 334 326 335 336 332 335 336
277 294 283 164 184 217 242 93 58 35 108 104 114 114 116 108 115 120 118 116 117 119 118 112 97 118 186 215 313 338 354 10 293 305 325 330 322 334 348 331 343 332 341 337 332 334 330 335 336
304 302 300 296 290 113 105 89 79 61 38 79 97 106 106 114 119 112 115 112 116 120 108 142 176 201 255 345 355 10 14 12 337 5 349 323 331 334 342 339 341 335 338 337 329 334 333 333 331
273 270 279 281 303 310 123 111 96 86 78 74 81 99 110 123 124 125 119 121 112 116 133 206 142 48 8 4 10 23 24 1 321 328 322 319 331 333 336 332 340 337 335 333 328 333 331 329 323
284 295 314 312 295 280 282 131 102 97 92 84 89 98 107 122 129 128 123 120 130 116 116 88 67 20 18 10 10 11 28 356 349 327 326 350 334 333 335 323 335 339 328 327 328 325 326 326 320
269 288 306 293 284 288 276 110 198 132 105 95 92 97 110 124 126 125 125 120 108 95 95 80 31 23 13 13 14 20 0 351 346 340 347 332 337 331 332 321 331 329 330 325 322 324 323 318 310
307 288 279 271 261 262 265 264 146 80 92 110 98 107 117 118 120 119 119 117 109 111 89 56 29 16 16 23 14 5 6 7 1 338 344 333 338 337 331 317 336 329 325 322 323 320 316 310 304
231 263 273 260 234 248 20 72 91 88 60 88 116 123 119 119 121 126 127 122 121 91 76 25 19 17 29 15 6 8 6 356 358 344 342 351 335 337 328 330 330 333 327 323 319 316 312 311 304
296 237 256 303 311 323 24 134 101 101 104 105 112 116 117 120 127 130 129 121 117 109 61 34 12 37 12 6 11 3 357 356 351 347 346 343 337 332 336 328 334 326 323 323 320 312 314 308 311
319 259 330 306 293 277 91 106 137 133 118 111 112 114 116 124 130 128 122 120 119 108 52 19 49 12 8 7 5 355 357 353 352 352 340 338 332 341 331 334 328 327 326 325 317 321 317 315 314
278 340 307 53 328 14 113 103 107 86 113 117 109 110 118 126 129 129 123 125 124 100 20 37 39 7 4 4 0 357 355 358 350 346 342 340 343 338 339 337 336 338 338 329 330 329 324 318 313
346 33 347 336 305 311 314 83 53 66 72 97 104 117 127 132 133 132 123 130 127 54 36 39 12 3 4 2 1 355 356 353 348 343 343 341 342 344 345 342 340 339 334 333 332 319 323 324 319
21 24 355 348 328 325 308 80 69 75 89 105 107 112 121 129 135 131 134 128 108 30 48 19 8 4 5 360 359 350 351 351 349 346 346 344 345 349 346 342 343 339 337 341 318 324 334 325 320